TimeMST,TemperatureF,Dew PointF,Humidity,Sea Level PressureIn,VisibilityMPH,Wind Direction,Wind SpeedMPH,Gust SpeedMPH,PrecipitationIn,Events,Conditions,WindDirDegrees,DateUTC
12:15 AM,36.0,2.1,24,30.26,10.0,NNW,15.0,-,N/A,,Clear,340,2014-01-17 07:15:00
12:35 AM,36.7,-0.8,21,30.26,10.0,NNW,16.1,-,N/A,,Clear,340,2014-01-17 07:35:00
12:55 AM,37.0,-1.7,19,30.26,10.0,NNW,10.4,17.3,N/A,,Clear,330,2014-01-17 07:55:00
1:15 AM,36.5,-1.7,20,30.27,10.0,NNW,5.8,-,N/A,,Clear,340,2014-01-17 08:15:00
1:35 AM,35.2,-1.3,21,30.28,10.0,NNW,3.5,-,N/A,,Clear,340,2014-01-17 08:35:00
1:55 AM,35.6,-1.7,21,30.28,10.0,NNW,4.6,-,N/A,,Clear,340,2014-01-17 08:55:00
2:15 AM,34.9,-1.1,22,30.29,10.0,WNW,4.6,-,N/A,,Clear,300,2014-01-17 09:15:00
2:35 AM,34.5,-0.8,22,30.29,10.0,NW,5.8,-,N/A,,Clear,310,2014-01-17 09:35:00
2:55 AM,34.5,-0.8,22,30.29,10.0,Calm,Calm,-,N/A,,Clear,0,2014-01-17 09:55:00
3:15 AM,31.8,0.9,27,30.29,10.0,Calm,Calm,-,N/A,,Clear,0,2014-01-17 10:15:00
3:35 AM,32.7,0.3,25,30.29,10.0,Calm,Calm,-,N/A,,Clear,0,2014-01-17 10:35:00
3:55 AM,31.1,1.0,28,30.28,10.0,Calm,Calm,-,N/A,,Clear,0,2014-01-17 10:55:00
4:15 AM,30.7,3.0,31,30.28,10.0,SSW,8.1,-,N/A,,Clear,200,2014-01-17 11:15:00
4:35 AM,30.2,5.0,34,30.28,10.0,South,6.9,-,N/A,,Clear,190,2014-01-17 11:35:00
4:55 AM,29.5,6.3,37,30.29,10.0,South,8.1,-,N/A,,Clear,190,2014-01-17 11:55:00
5:15 AM,28.9,8.4,42,30.28,10.0,South,10.4,-,N/A,,Clear,190,2014-01-17 12:15:00
5:35 AM,28.4,9.3,45,30.28,10.0,South,9.2,-,N/A,,Clear,190,2014-01-17 12:35:00
5:55 AM,28.2,10.4,47,30.29,10.0,SSW,6.9,-,N/A,,Clear,200,2014-01-17 12:55:00
6:15 AM,27.5,10.8,49,30.29,10.0,SSW,4.6,-,N/A,,Clear,210,2014-01-17 13:15:00
6:35 AM,27.3,11.3,51,30.30,10.0,SW,5.8,-,N/A,,Clear,220,2014-01-17 13:35:00
6:55 AM,27.5,11.7,51,30.29,10.0,SSW,5.8,-,N/A,,Clear,210,2014-01-17 13:55:00
7:15 AM,28.4,12.2,51,30.29,10.0,SSW,6.9,-,N/A,,Clear,210,2014-01-17 14:15:00
7:35 AM,28.4,11.3,49,30.30,10.0,SSW,5.8,-,N/A,,Clear,210,2014-01-17 14:35:00
7:55 AM,28.8,11.3,48,30.30,10.0,Calm,Calm,-,N/A,,Clear,0,2014-01-17 14:55:00
8:15 AM,25.9,7.5,46,30.30,10.0,Calm,Calm,-,N/A,,Clear,0,2014-01-17 15:15:00
8:35 AM,26.8,7.7,45,30.31,10.0,Calm,Calm,-,N/A,,Clear,0,2014-01-17 15:35:00
8:55 AM,28.0,8.2,43,30.31,10.0,Calm,Calm,-,N/A,,Clear,0,2014-01-17 15:55:00
9:15 AM,28.8,7.5,41,30.31,10.0,Calm,Calm,-,N/A,,Clear,0,2014-01-17 16:15:00
9:35 AM,30.4,7.5,38,30.31,10.0,Calm,Calm,-,N/A,,Clear,0,2014-01-17 16:35:00
9:55 AM,33.1,6.3,32,30.31,10.0,Calm,Calm,-,N/A,,Clear,0,2014-01-17 16:55:00
10:15 AM,34.2,4.6,29,30.31,10.0,NE,4.6,-,N/A,,Clear,50,2014-01-17 17:15:00
10:35 AM,33.4,4.8,30,30.31,10.0,Calm,Calm,-,N/A,,Clear,0,2014-01-17 17:35:00
10:55 AM,34.9,3.9,27,30.30,10.0,NE,6.9,-,N/A,,Clear,40,2014-01-17 17:55:00
11:15 AM,36.1,3.6,26,30.30,10.0,NNE,5.8,-,N/A,,Clear,30,2014-01-17 18:15:00
11:35 AM,37.4,3.0,24,30.28,10.0,ENE,6.9,-,N/A,,Clear,60,2014-01-17 18:35:00
11:55 AM,37.8,2.3,23,30.27,10.0,Calm,Calm,-,N/A,,Clear,0,2014-01-17 18:55:00
12:15 PM,38.8,2.1,22,30.26,10.0,ENE,8.1,-,N/A,,Clear,60,2014-01-17 19:15:00
12:35 PM,40.3,2.3,21,30.25,10.0,ENE,3.5,-,N/A,,Clear,70,2014-01-17 19:35:00
12:55 PM,40.1,2.3,21,30.23,10.0,Calm,Calm,-,N/A,,Clear,0,2014-01-17 19:55:00
1:15 PM,40.5,2.1,20,30.22,10.0,Calm,Calm,-,N/A,,Clear,0,2014-01-17 20:15:00
1:35 PM,41.7,2.3,19,30.21,10.0,East,4.6,-,N/A,,Clear,90,2014-01-17 20:35:00
1:55 PM,41.9,1.9,19,30.21,10.0,Calm,Calm,-,N/A,,Clear,0,2014-01-17 20:55:00
2:15 PM,42.1,2.7,19,30.21,10.0,ENE,4.6,-,N/A,,Clear,60,2014-01-17 21:15:00
2:35 PM,42.8,2.7,19,30.21,10.0,ENE,3.5,-,N/A,,Clear,60,2014-01-17 21:35:00
2:55 PM,43.0,2.1,18,30.21,10.0,East,3.5,-,N/A,,Clear,90,2014-01-17 21:55:00
3:15 PM,43.5,1.9,18,30.20,10.0,Calm,Calm,-,N/A,,Clear,0,2014-01-17 22:15:00
3:35 PM,43.5,1.9,18,30.20,10.0,ESE,3.5,-,N/A,,Clear,110,2014-01-17 22:35:00
3:55 PM,43.5,1.9,18,30.20,10.0,ESE,4.6,-,N/A,,Clear,120,2014-01-17 22:55:00
4:15 PM,43.3,2.3,18,30.21,10.0,ESE,3.5,-,N/A,,Clear,120,2014-01-17 23:15:00
4:35 PM,42.8,3.0,19,30.21,10.0,ESE,4.6,-,N/A,,Clear,120,2014-01-17 23:35:00
4:55 PM,41.5,2.5,20,30.21,10.0,East,4.6,-,N/A,,Clear,90,2014-01-17 23:55:00
5:15 PM,41.0,2.7,20,30.21,10.0,Calm,Calm,-,N/A,,Clear,0,2014-01-18 00:15:00
5:35 PM,40.1,3.0,21,30.20,10.0,South,3.5,-,N/A,,Clear,170,2014-01-18 00:35:00
5:55 PM,40.1,2.5,21,30.21,10.0,Calm,Calm,-,N/A,,Clear,0,2014-01-18 00:55:00
6:15 PM,39.6,2.5,21,30.20,10.0,SSW,4.6,-,N/A,,Clear,210,2014-01-18 01:15:00
6:35 PM,38.7,3.4,23,30.20,10.0,SW,6.9,-,N/A,,Clear,220,2014-01-18 01:35:00
6:55 PM,38.5,5.9,26,30.20,10.0,SW,3.5,-,N/A,,Clear,230,2014-01-18 01:55:00
7:15 PM,37.4,6.8,28,30.21,10.0,West,4.6,-,N/A,,Clear,260,2014-01-18 02:15:00
7:35 PM,38.1,6.4,27,30.21,10.0,West,4.6,-,N/A,,Clear,270,2014-01-18 02:35:00
7:55 PM,39.0,5.9,25,30.20,10.0,West,3.5,-,N/A,,Clear,280,2014-01-18 02:55:00
8:15 PM,39.4,5.2,24,30.20,10.0,Calm,Calm,-,N/A,,Clear,0,2014-01-18 03:15:00
8:35 PM,40.5,4.3,22,30.20,10.0,Calm,Calm,-,N/A,,Clear,0,2014-01-18 03:35:00
8:55 PM,38.3,4.8,25,30.20,10.0,NNW,3.5,-,N/A,,Clear,330,2014-01-18 03:55:00
9:15 PM,38.5,4.3,24,30.21,10.0,NNE,3.5,-,N/A,,Clear,30,2014-01-18 04:15:00
9:35 PM,37.0,3.2,24,30.20,10.0,North,3.5,-,N/A,,Clear,360,2014-01-18 04:35:00
9:55 PM,37.2,3.0,24,30.21,10.0,Calm,Calm,-,N/A,,Clear,0,2014-01-18 04:55:00
10:15 PM,36.3,3.2,25,30.21,10.0,NW,4.6,-,N/A,,Clear,320,2014-01-18 05:15:00
10:35 PM,35.6,3.9,26,30.21,10.0,NW,5.8,-,N/A,,Clear,320,2014-01-18 05:35:00
10:55 PM,35.6,3.7,26,30.20,10.0,NW,3.5,-,N/A,,Clear,320,2014-01-18 05:55:00
11:15 PM,35.4,4.1,27,30.20,10.0,Calm,Calm,-,N/A,,Clear,0,2014-01-18 06:15:00
11:35 PM,36.1,4.1,26,30.19,10.0,WSW,4.6,-,N/A,,Clear,250,2014-01-18 06:35:00
11:55 PM,36.0,4.5,27,30.19,10.0,Calm,Calm,-,N/A,,Clear,0,2014-01-18 06:55:00